Theta_e
305 296 292 291 295 295 296 297 298 296 295 293 296 295 291 291 293 295 295 296 297 293 291 293 294 294 295 296 298 298 298 298 297 298 298 299 300 301 300 301 302 302 304 306 308 309 309 310 310 310 311 312 313 313 314 314 314 314 313 312 311 312 313 313 312 311 310 309 307 308 309 306 309 312 311 311 311 313 314 314 316 317 318 317 318 322
302 294 294 297 298 298 298 297 297 296 294 294 294 293 290 295 291 296 294 296 295 293 290 292 292 293 294 295 297 298 298 297 298 298 298 299 300 301 301 302 302 303 306 309 308 308 308 308 309 309 309 309 310 311 312 313 313 313 313 312 311 312 312 312 312 310 309 309 309 310 309 310 312 310 310 311 310 310 310 312 313 314 316 315 314 313
294 290 295 298 299 298 297 297 296 294 295 295 292 291 291 291 295 295 294 295 297 294 289 291 290 292 294 295 297 297 298 299 300 300 299 299 298 301 302 302 302 302 304 308 307 308 307 308 308 307 307 309 310 310 311 312 312 312 312 312 311 311 311 311 310 310 309 309 311 311 310 312 308 309 308 310 310 309 308 309 310 311 313 313 313 312
290 294 297 299 298 296 295 294 295 297 296 293 292 290 288 294 292 288 293 295 295 293 289 290 290 293 296 297 297 298 299 299 300 300 300 300 299 300 302 302 302 302 303 307 307 306 306 307 307 306 306 307 308 308 308 310 311 312 310 311 311 310 310 310 309 309 310 310 311 307 304 308 305 301 301 303 305 306 307 306 306 307 310 310 311 311
292 298 299 298 298 297 294 295 294 291 289 293 295 292 292 294 293 291 290 293 294 295 295 292 291 291 294 294 295 298 300 299 300 299 300 301 302 302 303 303 304 302 303 304 306 306 305 305 305 305 306 306 307 307 308 309 310 311 310 310 310 310 309 309 308 309 309 308 303 302 302 301 301 300 301 302 301 303 304 304 304 303 305 308 309 309
294 298 301 296 299 296 296 291 293 294 288 290 294 294 293 294 292 294 296 293 289 288 293 294 281 283 291 294 295 296 298 296 298 298 300 300 300 301 301 302 303 305 304 304 304 306 305 305 305 304 304 305 305 306 308 309 310 309 309 309 309 308 308 308 308 309 308 306 304 303 302 300 298 300 301 302 303 301 302 303 304 302 302 305 306 307
294 297 300 297 296 296 296 294 295 295 289 289 289 295 297 294 295 294 293 291 283 281 291 294 283 280 287 290 292 293 293 294 296 298 299 300 301 300 302 303 303 304 304 305 305 304 303 304 304 303 304 304 305 306 307 308 309 309 309 309 309 308 307 308 308 308 305 305 305 305 305 303 302 303 304 305 304 303 302 303 302 301 300 301 304 305
295 295 296 297 297 295 293 290 296 295 290 286 295 297 296 296 294 295 293 292 288 293 294 293 290 282 283 288 293 294 293 294 293 295 298 300 300 301 302 304 303 303 304 305 304 304 303 304 304 303 303 304 305 306 308 308 309 308 308 308 308 307 306 307 307 305 305 305 304 305 305 304 304 305 304 304 303 303 302 301 300 299 299 299 300 301
296 294 296 295 294 293 291 295 298 296 293 293 295 298 296 296 296 295 292 289 289 285 282 287 291 282 281 288 293 294 291 292 293 294 295 297 297 299 301 304 301 302 303 304 303 303 303 303 303 303 303 304 305 306 307 308 308 308 308 308 308 306 306 306 305 304 304 304 304 305 305 305 306 307 306 304 302 301 300 300 297 297 297 297 297 299
295 297 297 298 293 291 295 293 298 298 291 295 297 299 298 297 296 294 289 287 285 282 280 285 290 280 283 288 289 291 291 291 292 294 296 297 298 301 302 302 301 301 301 301 302 302 302 302 302 303 304 304 304 306 307 307 307 306 306 306 306 304 304 305 304 303 303 304 304 305 306 306 306 307 306 304 301 298 298 298 296 296 295 295 295 296
296 296 296 297 295 297 293 294 295 296 297 298 298 296 294 293 290 289 287 285 282 279 282 290 291 286 280 286 288 289 290 293 295 294 298 303 302 303 302 301 301 301 301 302 301 300 300 300 301 302 303 303 304 305 307 306 306 306 306 306 305 304 305 305 303 302 302 303 304 305 307 307 307 306 302 301 299 297 297 298 296 295 295 294 295 294
296 296 295 297 297 297 296 293 296 298 297 298 293 289 290 288 287 285 284 285 279 278 284 290 291 289 278 282 293 294 296 294 296 295 299 300 301 301 301 300 300 300 301 300 299 299 298 299 299 300 301 302 303 305 306 305 305 305 305 305 305 304 303 302 302 302 301 302 303 305 306 307 308 303 301 301 298 297 297 298 295 295 294 293 294 294
291 292 295 295 297 297 295 292 292 295 296 296 291 288 282 281 281 279 282 277 278 277 283 283 289 285 285 288 291 293 295 295 296 297 299 299 302 302 301 300 299 300 300 299 299 298 297 297 298 298 300 301 302 304 304 305 305 305 305 305 304 303 302 301 301 301 301 301 303 305 306 307 308 305 302 302 299 297 298 298 296 293 294 293 292 293
289 294 295 295 295 297 297 288 286 285 290 292 288 283 280 276 276 273 277 280 281 283 283 284 287 283 288 290 293 295 296 295 295 299 299 298 299 302 302 300 300 300 299 300 301 299 298 298 298 298 299 301 302 304 304 304 304 304 305 304 303 303 303 300 300 301 300 301 303 305 305 307 307 304 303 303 301 297 299 299 298 295 295 293 293 293
281 282 290 292 288 296 295 294 291 289 290 291 293 289 283 280 276 273 276 275 277 281 282 284 281 279 280 285 292 296 296 297 297 299 300 300 301 302 302 300 300 299 299 301 301 301 301 300 299 299 299 300 302 303 304 304 304 303 303 303 302 302 302 300 299 299 299 300 302 304 305 306 305 304 303 303 303 299 298 298 298 296 295 295 295 294
286 286 294 297 295 296 294 297 298 294 290 290 292 294 286 283 285 278 281 281 279 280 279 280 280 283 286 291 294 295 294 295 296 297 298 298 298 301 301 301 301 300 300 301 301 301 301 301 300 299 299 300 301 303 303 303 304 303 303 303 302 302 302 301 299 298 299 299 301 303 303 305 303 302 302 301 300 299 299 298 297 297 295 296 295 296
286 283 294 296 295 294 295 298 297 297 281 288 290 284 288 292 290 284 280 282 279 278 277 281 283 287 290 293 294 295 295 295 294 295 295 296 297 298 298 299 299 300 300 300 300 301 301 299 300 300 299 300 301 302 303 304 304 303 303 302 302 301 301 301 299 298 298 298 299 301 302 303 303 301 300 300 299 299 299 299 298 298 297 296 296 296
285 287 290 292 291 293 293 296 298 297 298 291 283 288 293 294 292 285 278 280 278 276 279 280 280 283 281 281 290 290 291 291 293 294 296 297 295 295 297 299 300 300 299 299 300 299 300 300 300 300 300 301 301 302 303 303 303 303 303 302 302 301 301 301 300 298 298 298 298 299 301 302 302 302 301 300 299 299 298 297 297 297 296 296 296 295
292 282 287 291 292 294 297 296 295 297 296 292 288 297 289 280 280 283 280 275 273 273 275 279 281 282 284 286 288 288 290 291 293 294 294 295 295 296 297 299 299 300 299 299 299 301 301 300 299 299 299 300 301 302 302 303 303 303 302 302 302 301 302 302 301 299 298 298 298 299 299 300 301 301 301 300 300 299 298 297 295 294 294 294 293 293
292 283 285 288 291 293 293 292 285 287 294 296 296 292 296 288 282 281 282 281 280 275 274 277 278 279 287 288 288 289 291 292 294 293 294 295 296 297 299 299 299 299 299 300 301 301 301 299 298 299 299 300 301 301 302 302 302 302 302 301 301 300 301 301 301 299 298 298 298 298 298 299 299 299 299 298 298 298 298 296 295 294 292 292 292 292
287 288 280 285 289 291 283 289 286 289 286 285 285 284 288 285 288 285 285 282 279 275 275 275 276 281 287 291 291 292 293 294 294 294 295 296 296 298 298 300 301 300 300 301 300 300 300 299 297 298 298 298 298 299 300 302 302 301 301 300 300 300 300 301 300 298 298 297 297 296 296 297 297 297 297 297 296 297 297 296 294 293 293 290 289 289
285 283 282 282 282 283 286 293 292 293 293 290 289 287 289 285 282 279 279 288 283 281 276 277 276 283 292 294 295 292 293 297 299 296 298 298 298 303 302 302 303 301 301 300 300 300 299 297 297 296 296 295 296 298 299 301 300 300 301 301 300 300 300 300 299 298 297 297 297 296 295 294 294 295 295 295 293 294 294 293 291 290 289 289 288 289
292 288 284 281 283 287 290 294 295 294 295 293 291 288 291 290 286 281 277 278 283 282 284 281 279 283 294 294 293 295 296 298 299 297 297 300 300 301 301 300 300 300 301 301 300 300 298 297 296 296 296 296 297 298 298 298 300 300 299 299 299 299 299 300 299 297 296 296 295 295 294 293 292 292 292 292 291 291 291 291 289 289 289 289 287 288
295 286 283 282 288 290 291 294 295 294 294 291 292 292 289 287 288 286 282 282 281 281 281 280 279 284 293 294 296 296 295 295 297 297 299 298 300 299 299 299 298 299 299 298 297 297 296 295 293 294 294 296 296 297 299 299 299 299 299 299 299 299 299 299 298 297 296 295 294 293 293 292 291 291 291 292 291 290 289 289 289 289 289 288 287 287
287 286 286 281 280 283 285 289 288 291 291 286 285 291 292 292 290 288 285 287 283 283 283 281 277 283 290 292 294 294 295 296 296 295 297 296 297 299 299 299 299 298 298 296 296 296 295 294 293 294 294 295 295 296 297 298 299 299 299 299 299 299 299 298 298 296 295 293 292 292 292 291 291 291 290 291 290 290 289 288 288 288 289 288 286 286
291 288 286 281 278 276 275 277 278 281 284 286 288 290 293 291 290 286 283 283 281 283 284 282 282 288 292 293 294 294 294 293 295 295 296 296 297 299 300 299 299 298 297 297 296 295 295 294 292 293 294 295 295 296 296 297 298 299 299 299 298 298 297 297 296 295 293 292 292 291 291 291 291 291 290 289 289 289 289 287 287 287 288 288 287 286
287 287 288 287 285 283 284 285 290 290 285 283 285 288 289 292 292 290 285 283 282 285 284 285 286 288 290 291 291 293 293 294 295 296 296 296 295 295 296 298 298 298 298 297 297 296 293 291 294 294 294 295 295 295 296 297 298 298 298 297 297 298 297 296 295 293 293 292 291 291 291 291 291 291 290 289 289 289 288 287 287 287 287 286 286 286
287 286 288 288 287 288 290 290 293 291 287 288 286 286 289 290 290 288 286 285 289 284 282 288 289 286 289 292 293 293 293 293 294 295 295 295 297 298 298 297 297 297 296 296 296 296 296 296 294 293 294 294 295 295 295 296 296 296 296 296 295 295 296 297 294 293 292 292 291 291 291 291 291 290 290 288 287 287 287 287 286 286 286 286 286 285
286 285 289 289 288 289 290 290 293 294 292 291 289 288 287 289 288 287 288 290 289 285 283 288 289 287 290 293 294 293 295 296 297 297 297 297 296 295 297 297 298 298 297 296 297 297 296 295 296 296 295 294 294 293 293 292 293 293 294 294 294 294 295 294 293 293 292 291 291 291 291 290 290 289 288 287 286 286 286 286 286 285 285 285 285 285
288 286 287 287 287 288 289 290 290 290 290 290 292 293 291 289 289 289 289 291 290 288 290 290 290 290 292 294 295 294 296 296 296 297 298 297 297 297 297 297 297 297 297 297 298 298 298 298 297 297 296 294 293 293 292 293 293 294 295 295 294 294 294 293 293 292 291 291 292 291 290 289 288 288 287 286 285 285 285 285 285 285 285 285 285 285
290 285 290 286 285 286 288 289 288 289 289 288 291 292 293 293 291 291 290 290 290 290 291 291 290 289 295 296 296 297 298 299 298 297 298 299 298 296 297 298 298 298 298 298 298 298 298 298 297 297 296 295 294 294 294 294 294 294 293 294 294 294 294 293 293 292 291 292 291 290 289 288 287 287 286 286 285 284 284 284 285 285 285 285 285 284
290 285 286 285 283 284 288 287 288 288 288 287 287 289 290 290 288 290 289 291 289 288 289 289 287 288 294 296 296 297 297 297 297 298 298 299 298 297 298 298 298 298 299 300 300 299 299 298 298 297 297 296 296 295 294 294 294 293 293 294 294 294 293 293 293 292 292 291 290 289 289 288 286 286 285 285 285 284 283 283 284 284 284 284 284 284
287 286 284 285 282 283 285 285 286 286 286 283 285 288 290 291 291 293 294 294 293 293 288 286 288 294 295 296 294 295 296 297 297 298 298 299 299 299 299 299 300 300 301 301 301 300 300 300 299 299 298 297 297 296 295 296 294 293 294 293 293 293 293 293 293 292 291 290 289 289 288 287 286 285 285 285 284 283 283 283 284 284 284 283 284 284
287 286 285 287 282 284 284 284 285 284 278 280 291 294 293 290 291 289 289 292 294 295 292 294 294 296 296 296 295 296 296 297 298 300 301 300 299 296 296 298 299 299 300 300 300 299 300 300 300 299 299 299 298 298 297 295 294 294 294 293 291 292 293 293 292 292 291 290 289 288 287 287 286 285 285 284 284 283 282 283 284 284 284 284 284 283
286 287 285 287 283 283 284 285 282 277 279 289 295 295 295 294 294 292 292 293 294 295 296 295 296 297 298 298 298 298 298 299 300 300 300 301 297 297 298 299 300 299 300 300 299 299 299 300 300 299 296 296 297 295 293 293 294 293 291 292 292 292 292 292 292 291 290 289 288 288 287 286 286 286 284 284 283 283 282 282 282 283 284 284 283 283
286 286 286 285 286 286 283 282 276 277 285 289 292 294 294 294 293 291 289 293 294 295 295 295 296 298 298 298 299 299 298 299 298 297 298 298 297 298 298 299 300 300 300 301 301 301 300 298 299 298 298 295 294 292 293 294 292 292 292 290 291 290 291 291 290 290 289 288 287 287 287 286 285 285 284 283 283 282 282 282 282 282 284 284 283 283
290 287 287 284 287 280 283 282 281 287 286 288 288 288 288 287 287 288 285 289 295 296 296 296 296 297 298 298 299 298 297 295 294 298 299 297 298 298 300 300 300 300 301 301 300 301 299 295 294 294 294 293 292 291 292 289 290 291 289 289 290 290 289 289 289 289 289 288 287 287 286 286 285 285 284 283 282 282 282 282 282 283 283 283 283 282
293 287 288 284 283 286 282 280 281 281 278 284 290 293 294 295 296 295 291 288 295 296 299 297 296 297 297 297 296 296 295 292 292 295 296 294 296 299 296 298 299 299 298 297 295 293 290 290 289 288 292 291 290 289 288 287 289 289 289 289 288 288 288 288 289 289 288 288 288 287 286 285 285 284 283 283 282 282 282 282 282 283 283 283 282 282
293 293 288 286 284 284 282 279 279 278 281 288 289 291 294 295 296 293 289 286 293 293 295 297 296 296 295 293 294 294 292 290 291 294 298 294 293 292 292 292 294 293 292 292 293 292 290 289 289 289 289 290 290 288 287 287 287 288 288 287 287 288 288 288 288 287 288 287 286 285 285 285 285 284 283 283 282 282 281 281 281 282 283 283 282 282
288 288 287 284 283 284 283 281 279 283 282 286 287 287 288 292 296 291 281 282 294 293 292 293 294 292 292 293 293 291 290 288 290 296 293 292 292 291 291 292 293 291 290 287 288 289 289 288 289 289 288 288 288 286 286 286 287 287 287 287 286 286 287 287 287 286 284 284 284 284 284 285 285 284 283 282 281 281 281 281 281 281 282 282 282 281
285 286 286 282 284 284 284 282 284 284 288 289 288 288 291 294 293 284 278 287 291 291 290 292 291 293 293 293 292 290 290 293 294 293 291 290 291 291 288 287 289 288 289 288 287 287 287 286 287 287 286 286 285 285 285 285 285 286 285 285 285 287 287 285 284 285 285 285 284 284 284 284 284 283 282 282 281 281 281 281 281 281 281 281 281 280
285 285 285 286 283 281 283 281 281 285 287 289 288 289 290 291 283 282 289 290 289 288 288 290 290 289 290 290 289 290 292 291 291 292 292 291 289 289 289 289 289 290 288 286 285 285 285 285 285 284 285 286 284 284 284 284 285 284 283 283 286 285 284 284 284 284 284 284 283 283 283 283 282 283 282 281 281 280 279 279 280 281 281 280 280 279
283 283 280 282 285 285 284 280 279 276 287 293 291 288 290 285 285 288 288 288 289 289 288 287 288 288 288 290 290 290 289 290 290 290 291 292 291 290 289 290 290 290 290 289 288 284 284 285 285 285 284 284 284 284 283 283 284 283 283 284 283 283 283 283 284 283 283 282 283 282 282 282 282 282 281 281 281 280 279 279 279 280 280 280 279 279
288 282 281 283 286 281 281 278 280 285 288 289 292 285 288 290 291 288 290 289 289 290 289 287 288 289 289 289 289 290 290 290 291 291 292 292 293 293 290 288 287 288 288 287 285 285 284 284 284 285 283 283 283 283 282 284 284 282 283 283 282 282 282 283 283 283 283 283 282 281 281 281 281 281 281 281 280 280 279 279 279 279 280 279 279 278
285 284 286 282 286 285 282 284 287 287 286 289 293 292 292 293 291 291 289 290 289 289 290 289 288 288 289 288 288 288 289 290 290 291 290 292 293 293 293 292 288 289 289 289 288 285 284 284 285 285 283 282 282 282 282 282 284 284 284 283 283 283 284 283 283 283 282 281 281 281 281 281 281 281 280 280 280 279 279 278 279 278 279 279 278 278
284 285 287 287 285 288 286 285 286 287 288 290 292 290 291 291 289 289 289 289 289 288 289 289 289 287 287 288 287 287 288 289 289 290 291 291 292 292 291 290 289 287 288 288 288 288 285 284 284 284 285 283 282 282 283 282 283 284 283 282 283 283 283 283 283 282 281 281 281 281 281 281 281 281 281 281 281 280 280 279 279 278 278 278 278 277
284 284 283 282 283 285 280 286 285 286 287 287 290 290 289 290 290 289 288 288 288 288 288 288 288 288 287 287 288 288 288 288 288 289 290 290 290 291 291 290 290 289 288 288 289 288 286 283 284 284 283 283 280 281 283 284 283 283 281 282 282 283 283 283 283 283 282 282 282 281 282 282 281 281 281 281 281 280 280 279 279 278 278 278 277 277
280 283 279 279 281 281 280 284 284 286 287 287 289 287 289 289 289 289 290 289 288 288 288 288 287 287 287 287 287 287 288 288 287 288 289 289 289 290 290 291 291 291 289 287 287 287 286 285 284 284 284 284 283 281 281 281 283 283 283 282 283 283 284 284 284 283 282 282 282 282 282 282 280 280 280 280 280 279 278 278 278 278 277 278 278 277
281 285 275 280 280 281 282 283 284 285 285 286 287 288 288 288 288 288 288 289 288 288 287 288 288 288 288 289 288 287 287 288 287 288 288 289 289 289 289 289 289 290 290 288 287 286 286 286 286 285 284 284 283 282 282 283 284 285 284 284 285 285 285 284 284 283 282 282 282 281 281 281 280 280 280 279 279 279 279 278 278 278 278 279 280 279
281 276 279 280 275 277 278 281 285 281 280 284 284 286 286 286 288 288 287 286 286 287 288 288 288 288 288 289 288 287 287 288 289 286 287 288 288 288 288 289 289 289 289 288 287 285 285 285 285 285 285 285 283 282 282 282 281 282 282 284 284 285 284 283 283 282 281 281 281 280 280 280 279 279 279 279 278 278 277 279 281 280 279 279 282 282
279 280 281 276 278 277 282 283 283 283 282 283 284 283 285 287 288 287 286 286 287 287 287 287 287 288 288 288 288 287 288 288 289 288 287 288 289 288 288 288 288 289 289 288 286 284 284 284 283 283 284 284 283 283 283 282 282 282 281 282 283 284 283 283 282 281 281 281 280 280 280 280 279 279 279 279 278 278 277 277 280 283 283 282 282 283
Wind_Speed
1 2 3 3 4 5 4 5 3 4 4 3 1 1 2 4 2 3 3 2 0 1 5 8 9 9 9 8 8 7 6 6 6 6 6 6 8 8 8 9 10 9 11 6 9 10 11 11 10 8 8 8 8 8 9 9 10 10 10 9 10 8 7 7 7 6 7 6 4 2 4 4 3 3 2 2 3 4 4 3 4 5 5 3 3 6
1 1 3 4 5 1 1 4 3 2 4 2 2 3 5 1 2 2 2 1 3 1 2 4 6 9 8 6 6 6 6 10 10 9 9 10 9 8 9 10 11 9 3 4 5 5 7 7 8 8 8 8 11 10 10 12 12 11 9 10 9 8 8 8 7 7 6 5 5 5 5 4 4 5 6 6 5 5 4 4 4 4 4 3 3 3
1 4 4 5 2 4 4 4 5 4 3 2 0 2 1 3 2 3 3 1 1 1 6 4 5 11 9 7 6 7 9 11 11 11 11 8 8 8 8 10 9 6 7 5 6 6 7 7 8 7 7 7 9 9 10 9 9 9 9 9 8 8 8 7 7 8 6 4 4 5 4 6 3 3 4 4 4 5 5 5 4 3 3 4 4 3
2 4 9 1 4 5 3 4 2 0 0 1 1 1 3 1 1 2 0 1 2 2 3 4 6 12 14 9 13 15 14 14 13 9 7 7 9 8 10 10 7 8 8 8 8 8 7 8 8 6 7 8 6 6 6 8 10 9 8 8 9 9 7 7 6 7 6 6 4 2 1 3 6 4 4 3 3 5 5 5 3 2 3 4 4 4
5 1 1 5 3 1 2 1 1 2 2 4 4 2 3 2 2 2 1 3 3 2 3 5 7 8 10 9 4 8 13 11 12 8 7 8 8 8 6 5 6 7 7 7 7 7 7 7 9 10 8 7 8 8 8 8 9 7 9 8 8 8 8 7 7 7 8 7 5 5 5 5 6 4 4 4 3 4 4 4 4 4 3 5 4 4
6 1 1 4 2 0 1 2 4 2 3 2 6 9 6 2 5 2 2 4 2 2 1 1 6 5 1 3 6 2 1 5 6 6 8 10 8 6 7 8 6 6 5 5 5 8 10 10 7 6 7 7 7 7 7 8 8 6 7 7 7 7 6 7 8 8 7 8 8 7 7 7 5 6 6 9 9 7 6 6 3 4 3 4 4 5
1 1 0 4 4 3 1 2 4 4 2 0 2 4 3 3 2 3 3 1 2 1 1 1 0 9 4 9 8 8 8 9 4 6 10 9 7 6 8 7 7 7 5 4 4 3 7 6 6 6 7 7 7 6 5 6 7 7 7 7 7 7 6 7 7 8 7 7 7 8 8 5 6 7 5 3 2 5 3 4 5 4 3 3 5 5
3 2 4 1 4 4 3 3 1 5 2 2 1 2 1 0 1 1 1 0 3 1 3 6 5 6 10 8 7 12 15 14 7 8 10 10 7 7 7 6 5 5 5 5 5 4 6 8 9 8 8 7 8 6 6 6 6 7 8 8 8 7 8 6 7 8 8 8 6 7 6 5 5 6 4 4 3 4 5 4 4 4 4 3 4 4
2 5 5 3 2 3 5 1 5 5 3 1 1 3 2 3 4 0 1 1 2 4 7 4 2 3 6 3 7 10 10 10 9 8 10 9 6 5 5 5 5 5 3 4 4 3 3 6 6 6 7 6 6 6 7 6 6 6 7 8 7 8 7 6 6 8 6 6 6 6 7 7 6 5 4 5 4 4 5 5 4 4 4 4 3 4
3 0 1 4 5 5 3 2 3 5 4 1 2 2 3 3 2 2 1 2 3 2 9 5 4 3 15 4 4 7 6 8 7 8 11 8 5 6 6 4 5 3 2 1 2 2 2 2 5 6 6 6 5 5 5 5 5 5 5 6 6 5 6 6 6 7 6 6 5 7 7 8 7 6 5 7 6 5 5 6 5 4 4 4 4 4
1 3 5 1 2 1 4 3 3 4 3 5 2 5 2 2 1 1 1 1 2 2 11 8 10 5 8 2 8 7 6 8 9 4 1 4 5 4 4 5 4 4 3 3 2 3 4 4 4 6 6 5 5 5 5 5 6 5 6 7 7 6 7 8 8 8 7 6 6 7 8 9 8 7 7 7 6 6 6 6 6 5 5 4 4 4
1 1 0 0 1 4 4 4 5 1 2 3 1 2 2 1 2 1 0 1 1 9 3 4 10 8 5 5 2 2 1 4 1 2 2 4 4 3 3 4 5 4 5 4 4 3 4 4 3 4 6 6 5 5 5 5 5 6 6 7 8 7 8 8 8 8 7 7 7 6 7 8 7 7 7 8 8 8 8 7 7 5 4 4 4 4
3 4 2 3 5 3 3 6 4 3 1 0 2 3 5 1 2 2 1 2 5 7 1 3 2 3 15 9 1 0 1 1 2 4 1 2 4 4 5 5 5 5 5 5 5 4 4 5 6 5 6 6 6 6 6 7 6 6 7 8 9 9 9 10 9 9 8 8 8 9 9 8 7 7 8 8 8 8 8 7 7 7 6 5 5 5
2 2 5 3 3 4 4 8 3 1 3 4 6 7 5 3 3 4 4 2 2 2 2 1 3 5 9 7 6 13 9 4 4 2 3 4 6 7 6 5 5 5 5 5 6 6 5 6 5 5 7 7 7 7 7 7 7 6 6 7 8 7 7 8 8 9 9 9 9 9 9 8 6 6 8 7 7 7 7 7 8 8 8 8 9 9
4 4 6 6 3 6 5 7 11 7 9 9 4 8 8 6 3 4 4 6 6 5 0 4 2 8 1 3 2 1 1 4 3 1 0 1 3 1 4 5 5 6 5 5 6 7 7 8 8 8 6 7 8 8 8 7 7 6 6 7 7 7 7 8 8 8 8 8 8 9 8 8 6 6 6 6 5 7 7 6 7 6 6 7 7 8
10 6 2 15 2 13 12 5 6 5 3 4 4 1 3 9 1 4 1 0 1 2 2 1 6 2 5 3 6 4 4 6 4 3 6 7 5 3 2 6 7 7 7 6 6 6 7 8 8 7 7 6 6 8 7 7 7 7 8 7 8 9 9 9 9 8 8 7 7 7 9 9 6 5 5 5 4 6 7 7 7 7 7 6 6 5
2 4 2 3 5 16 13 6 4 9 5 5 3 7 8 1 2 0 2 1 2 2 9 3 6 8 4 13 13 12 13 12 7 5 5 7 6 2 5 7 7 6 7 8 6 7 7 6 7 8 7 7 6 7 9 9 9 9 8 8 9 9 7 9 9 9 8 7 7 8 8 8 7 6 7 7 7 7 6 6 6 6 6 5 5 5
5 3 2 2 4 1 3 1 0 1 1 6 5 6 2 3 2 3 5 1 2 8 8 3 8 12 1 13 3 2 8 7 7 7 7 7 6 6 8 8 9 8 5 6 8 7 6 7 8 7 6 7 8 8 8 8 7 8 8 9 9 10 11 10 10 9 8 8 7 7 9 9 9 8 7 6 7 6 6 5 5 5 6 7 6 6
3 5 2 1 3 2 3 1 1 1 4 3 4 1 6 2 3 3 2 6 5 5 4 5 8 10 9 16 6 6 2 4 7 8 7 8 7 8 7 9 8 1 4 5 6 5 6 7 8 7 7 6 6 7 7 7 7 7 6 7 8 10 10 10 10 10 9 9 7 7 9 9 8 8 7 6 6 6 6 7 6 7 6 5 6 7
2 5 1 2 2 0 1 3 9 6 2 1 2 1 1 2 3 6 7 1 2 7 4 10 5 8 8 8 5 5 5 7 9 8 9 10 9 6 7 9 5 5 5 6 5 6 6 5 6 7 7 8 8 7 7 7 6 7 7 6 6 5 6 7 9 11 12 11 9 8 7 8 7 8 8 7 7 7 7 7 7 6 5 6 6 6
3 4 5 0 5 2 2 5 9 9 8 1 0 2 1 1 1 3 2 5 6 4 6 5 9 7 9 5 7 9 9 9 10 10 8 8 8 8 6 3 4 5 6 6 5 5 5 5 5 6 6 6 5 5 5 6 7 7 6 6 7 7 7 9 8 8 10 10 10 10 9 9 8 8 8 8 7 8 8 8 7 7 6 6 5 6
2 4 7 3 0 5 6 7 9 10 15 13 13 12 13 8 4 4 9 1 1 4 3 4 11 8 13 2 5 4 3 1 1 4 3 4 2 1 2 1 1 3 4 5 5 5 5 5 5 5 5 5 5 5 6 6 6 7 8 7 7 7 7 8 8 8 7 8 10 11 10 9 7 8 7 8 7 8 7 7 7 6 6 7 6 7
7 3 4 6 9 11 8 1 3 1 3 6 9 10 11 8 6 5 8 4 0 3 1 2 4 14 13 1 4 4 0 1 2 2 0 2 0 1 1 1 1 0 2 4 4 5 6 5 5 7 7 7 7 6 6 6 7 7 6 7 7 8 9 8 7 6 6 6 8 10 10 9 8 8 8 9 8 8 8 7 6 6 8 7 6 6
4 2 2 4 1 3 3 1 0 3 2 1 5 4 3 8 8 7 4 4 5 2 4 3 8 13 10 2 2 3 1 2 1 0 2 2 1 1 2 1 3 1 1 1 2 3 4 5 5 5 5 6 6 7 9 8 6 6 6 7 7 9 8 8 7 7 7 6 7 8 9 10 9 9 9 10 8 9 8 7 7 7 7 7 6 7
5 2 6 2 1 0 0 1 2 2 1 1 2 3 3 3 5 5 4 0 4 7 9 7 13 12 7 2 1 1 1 1 5 4 2 4 5 4 3 3 3 4 4 4 4 4 4 5 6 6 6 6 6 5 6 7 8 8 8 7 9 8 7 7 6 7 8 7 8 8 9 9 10 10 10 10 8 10 9 8 8 8 8 8 7 7
4 3 8 8 10 11 8 7 6 3 6 3 2 5 10 11 6 5 8 4 9 7 11 8 10 12 9 2 1 0 1 3 3 2 2 3 4 3 2 3 3 4 4 4 5 6 8 7 4 5 6 6 7 8 8 8 9 9 8 9 7 6 7 8 6 7 7 7 8 8 9 9 10 11 11 10 9 10 10 9 9 9 8 9 9 8
1 1 5 10 12 13 9 2 1 8 4 6 7 11 9 9 12 8 3 5 13 12 13 10 12 16 18 11 2 2 2 3 3 1 2 4 4 4 4 5 4 4 5 6 6 7 4 5 9 9 7 9 8 9 10 10 10 9 8 7 6 6 7 7 7 7 8 8 8 8 9 10 11 10 10 10 10 9 9 9 9 10 10 9 10 10
2 1 5 5 9 11 6 3 2 11 7 11 10 9 12 10 10 12 11 15 13 6 14 12 14 12 21 20 11 10 5 4 4 3 3 3 5 6 7 5 7 5 5 5 4 6 9 10 7 8 10 9 10 10 10 10 8 8 8 8 6 6 7 7 8 8 8 8 9 10 10 10 9 9 10 9 8 9 9 9 9 9 8 9 10 10
3 3 4 4 6 8 8 5 4 1 4 4 10 10 10 13 10 13 17 19 13 12 16 13 8 13 20 20 11 5 8 12 9 8 6 5 4 4 4 5 7 9 8 7 8 8 7 7 9 11 10 12 10 10 10 7 7 6 6 6 7 7 9 8 8 9 9 9 10 11 9 8 7 7 8 9 9 9 9 9 9 9 9 9 9 8
3 5 2 1 5 10 11 7 4 7 6 6 5 4 6 11 15 17 17 17 18 15 13 15 17 19 16 18 11 4 7 5 5 7 9 8 7 7 6 7 8 9 9 10 10 10 10 11 11 11 11 9 10 10 8 8 8 9 9 9 8 9 8 8 9 9 9 10 12 8 7 8 7 8 8 9 10 9 9 9 9 10 9 10 9 9
4 3 1 1 4 12 14 8 5 8 7 9 8 9 9 8 12 16 15 14 14 15 17 19 19 19 17 14 9 9 12 9 9 11 12 12 8 5 6 9 10 10 9 8 8 9 10 10 10 9 7 8 10 12 11 10 9 8 8 8 9 10 9 8 9 9 10 12 9 8 8 8 8 8 10 9 9 8 9 9 9 9 9 9 10 10
3 2 3 2 3 6 10 10 9 8 9 10 11 12 13 16 16 9 9 9 12 15 16 13 14 17 19 9 7 14 11 10 13 14 13 9 6 6 8 9 9 8 9 10 9 9 10 10 10 10 11 11 11 11 10 10 11 9 11 11 11 11 8 9 10 11 11 10 8 8 9 8 8 9 9 9 10 9 8 8 8 9 8 8 9 8
5 5 5 3 5 8 4 3 5 4 4 9 13 20 21 15 11 11 13 13 16 13 10 10 15 14 16 12 8 11 12 12 13 13 12 12 10 9 10 10 11 12 13 12 11 11 10 10 10 10 10 9 10 12 13 14 11 11 13 11 11 7 9 12 11 11 10 9 9 9 9 8 9 9 9 9 9 8 8 9 9 9 9 9 8 7
6 7 4 4 4 1 3 2 2 3 8 9 6 11 14 17 17 18 18 19 14 9 9 10 12 12 13 15 15 13 14 12 12 15 13 10 9 6 6 8 10 9 9 9 8 9 9 8 8 8 10 12 12 13 14 11 12 13 11 9 7 10 11 11 10 11 11 9 9 9 8 9 9 9 9 8 8 9 9 9 10 9 8 7 7 8
10 8 5 5 4 3 2 3 3 11 10 4 1 6 13 17 17 19 20 18 15 13 11 13 15 18 20 18 16 15 14 15 15 16 19 14 7 6 8 11 11 9 10 10 10 9 9 9 9 9 7 8 11 8 6 6 9 8 6 8 9 9 10 10 10 10 10 10 8 8 8 9 9 9 9 9 9 9 9 10 8 9 9 8 9 9
9 10 4 3 4 0 1 4 7 5 1 2 4 6 7 8 10 7 10 13 15 16 16 16 18 20 19 19 16 14 13 15 11 12 16 11 2 6 9 10 10 11 11 12 12 11 9 9 10 10 10 5 2 4 6 8 6 7 8 6 8 8 9 8 9 9 8 9 9 10 9 10 10 9 9 9 10 10 10 9 10 10 8 8 7 7
12 6 6 5 6 8 5 10 12 6 13 11 11 8 5 5 5 9 9 11 15 15 14 14 18 20 18 17 15 12 10 6 8 16 11 2 4 7 10 10 9 10 11 11 9 11 8 5 5 5 3 2 3 4 6 4 5 6 5 6 7 7 7 8 9 10 10 9 9 10 10 10 10 9 9 10 10 10 10 10 10 9 7 8 8 9
8 11 6 8 6 9 9 9 6 6 11 13 15 12 4 7 8 8 10 10 5 10 14 16 17 19 17 13 9 9 5 5 12 17 3 4 5 8 6 6 8 8 8 7 6 6 5 2 1 1 1 0 1 2 3 4 5 5 6 6 5 7 8 9 11 9 8 9 9 9 8 8 9 10 10 10 11 11 9 8 7 9 8 10 9 9
11 10 7 12 5 6 10 9 8 11 10 8 11 6 8 8 10 5 5 11 8 11 10 11 14 14 10 6 8 7 4 8 13 13 7 2 5 6 6 6 7 6 5 3 3 5 5 3 1 0 0 0 2 2 3 4 5 5 6 6 6 7 8 10 9 7 9 8 6 6 7 7 8 9 10 10 10 9 9 9 9 8 8 8 8 8
13 10 6 9 10 11 8 9 9 5 8 7 7 5 3 6 6 5 10 8 9 3 3 6 10 6 5 8 6 5 5 8 10 11 5 7 3 5 5 6 8 9 8 5 2 0 1 1 3 5 4 4 5 3 5 5 6 6 7 7 6 7 10 10 8 5 4 4 6 6 7 7 8 8 9 9 8 7 8 7 7 8 8 6 6 6
9 7 11 16 12 12 15 12 7 6 4 6 5 3 0 3 6 8 12 1 1 1 2 2 4 5 5 7 5 6 6 5 6 9 7 4 8 7 6 5 5 5 7 7 7 6 4 3 1 4 5 5 2 1 1 2 3 5 5 5 6 10 9 5 4 5 5 6 6 7 7 6 7 8 7 7 8 8 7 7 7 7 7 7 6 6
6 5 5 11 13 14 13 14 12 8 3 3 2 4 4 4 6 11 1 2 4 4 4 7 7 6 7 5 3 3 7 9 8 9 10 8 4 4 5 7 9 9 6 3 4 5 6 5 4 4 3 1 1 3 4 4 5 5 4 4 8 5 1 4 4 5 5 6 6 6 6 7 6 7 8 7 8 8 7 5 6 7 7 6 6 8
6 6 5 10 6 8 7 11 9 10 0 5 3 2 1 5 1 0 4 2 3 2 4 4 4 2 3 7 8 7 8 10 9 8 9 10 8 6 5 6 8 8 10 9 8 4 3 6 6 6 5 2 1 2 3 4 5 5 4 6 5 2 4 4 5 5 5 5 6 5 6 6 7 7 7 8 8 9 8 7 8 7 8 8 8 8
8 7 3 4 5 6 9 10 5 3 1 3 2 5 0 2 2 1 2 7 3 4 5 4 1 1 1 2 7 9 10 9 11 10 11 12 11 11 6 4 6 7 8 7 5 5 2 5 6 7 5 2 1 1 3 5 5 5 5 6 3 4 4 4 4 5 5 5 5 5 5 6 6 7 7 9 9 8 9 8 7 8 7 8 8 8
6 8 6 7 4 8 5 2 2 3 5 1 2 2 2 3 3 2 2 1 3 5 1 4 3 0 1 2 4 6 8 9 9 9 7 10 11 11 12 9 5 7 9 10 9 5 3 5 7 7 6 3 3 2 3 4 6 5 6 4 4 5 6 5 6 6 5 5 5 5 5 5 6 7 7 8 9 9 8 8 8 8 6 7 7 7
2 1 1 2 5 2 3 3 1 0 2 2 1 2 3 1 2 3 3 3 2 2 1 3 5 4 2 2 3 5 5 8 9 11 10 10 10 11 9 8 6 5 7 8 9 7 5 5 5 6 8 6 4 4 4 4 5 7 4 3 4 5 6 6 7 6 6 6 6 6 7 7 6 6 7 7 7 8 8 10 9 8 7 7 7 7
1 1 0 2 3 4 6 2 5 1 0 0 1 1 2 2 2 4 4 2 3 3 4 2 4 5 5 3 4 6 8 7 8 10 8 8 10 10 9 9 9 6 7 8 9 7 7 5 7 8 8 8 5 4 4 4 4 4 3 5 5 5 6 6 7 6 6 7 6 6 7 8 7 6 6 6 6 6 6 6 7 7 7 7 7 7
2 1 2 1 1 5 4 3 3 4 3 4 4 3 0 4 4 4 2 2 2 3 3 5 3 5 4 5 5 5 8 7 6 8 9 9 9 8 8 9 10 10 7 6 7 5 6 7 9 10 8 10 6 5 5 5 5 4 4 4 5 6 7 7 7 8 7 8 7 7 7 7 9 9 6 6 7 7 6 5 6 8 8 9 9 9
1 1 2 3 3 5 5 6 8 7 4 2 1 1 2 2 1 4 3 1 0 1 4 6 4 4 5 7 6 5 7 10 6 6 8 10 9 9 9 9 9 9 10 8 6 5 8 8 10 11 10 10 5 5 6 6 6 6 7 7 7 8 8 8 7 7 8 7 7 7 6 7 7 7 7 7 6 6 7 9 8 8 6 5 6 8
3 3 3 1 1 3 4 6 0 1 3 3 3 3 3 4 2 3 2 3 3 4 5 6 9 6 5 6 5 5 7 10 9 5 7 9 9 9 10 11 11 10 10 8 5 6 7 9 9 10 11 10 6 6 7 6 6 6 6 7 7 8 9 8 8 8 8 7 7 7 7 6 7 6 7 7 7 7 4 4 6 5 7 7 7 8
4 4 4 5 5 5 2 3 2 1 4 5 7 3 2 1 3 3 5 5 5 5 5 4 6 10 10 9 5 5 7 9 12 8 7 9 10 8 8 9 11 12 12 8 6 7 7 8 8 10 12 11 7 8 9 9 9 8 8 8 9 9 9 9 8 7 7 7 7 8 7 7 7 6 6 7 7 7 7 6 5 8 8 6 8 9
Wind_Direction
41 148 178 203 217 193 211 221 218 66 28 9 340 4 341 359 21 80 85 38 13 344 245 234 247 252 255 255 265 271 276 266 258 252 237 221 220 220 225 233 235 232 231 205 198 187 187 183 180 174 169 172 169 176 178 172 174 179 173 163 178 177 167 163 155 161 163 167 172 180 177 167 160 180 201 177 124 143 157 177 199 203 198 180 170 175
32 239 235 223 232 340 233 177 78 78 29 38 30 3 323 93 315 62 135 189 23 76 290 295 290 274 266 263 265 270 276 265 250 248 244 240 230 218 220 234 235 236 250 199 206 185 168 167 167 164 166 168 172 189 182 183 181 177 170 173 172 173 173 176 165 162 167 173 178 170 176 160 167 168 191 203 176 165 151 169 188 198 178 166 151 136
106 191 239 229 99 95 54 43 58 39 3 72 7 349 12 294 114 63 62 333 157 113 258 277 295 283 273 262 260 250 243 250 240 230 236 234 237 227 223 231 235 229 230 202 201 173 164 161 163 166 172 184 186 182 185 184 170 175 176 175 169 177 173 176 158 154 166 166 179 178 168 167 166 160 175 189 171 152 163 174 179 178 164 162 149 140
199 228 233 113 100 93 62 70 40 41 90 301 150 205 217 223 66 293 7 344 233 212 278 320 302 280 278 257 246 242 236 245 250 247 246 232 231 224 219 216 214 215 213 203 194 188 172 167 167 166 176 185 175 176 183 181 179 181 181 175 172 174 168 166 163 148 155 163 174 140 43 138 141 157 125 107 120 143 151 173 156 153 157 153 162 154
199 58 30 104 92 96 123 117 119 127 257 199 212 229 238 223 208 200 151 236 192 262 26 311 289 270 260 270 265 249 232 236 256 265 261 253 234 229 240 245 210 210 202 209 202 187 170 169 183 185 183 167 178 183 185 185 183 186 185 177 169 166 164 161 159 155 150 144 117 111 99 92 83 79 126 140 175 173 164 147 170 171 146 156 162 168
246 141 245 100 105 103 136 157 185 161 249 264 207 196 210 250 294 50 55 24 344 289 238 1 348 297 300 237 238 291 95 222 246 243 248 245 242 235 238 236 245 247 224 198 198 185 181 184 184 181 174 178 186 187 188 182 180 170 174 166 159 153 154 159 165 166 152 157 156 155 160 166 170 170 179 197 196 181 183 185 145 133 154 149 157 169
191 5 261 144 128 137 195 196 197 151 212 41 288 3 15 320 19 60 344 58 314 270 246 270 121 274 323 293 287 287 282 255 232 220 244 248 238 212 221 224 220 218 228 224 220 138 163 179 180 181 179 181 183 196 174 175 177 166 166 163 158 154 160 163 165 170 148 163 168 178 191 195 193 191 203 193 156 165 153 134 158 153 146 152 157 169
94 208 72 107 132 130 170 191 188 153 147 250 317 327 344 79 103 46 52 173 238 326 274 178 174 260 287 260 241 250 254 261 254 241 239 239 231 214 206 207 198 178 164 173 175 197 167 178 178 182 180 179 185 178 170 175 173 166 166 161 158 151 161 168 161 158 160 166 167 174 191 198 202 204 191 171 149 134 141 141 145 142 156 149 148 161
143 173 148 162 169 157 190 204 179 158 154 190 226 276 72 71 91 38 121 317 285 25 289 174 161 319 244 255 214 223 250 263 255 237 245 241 233 192 143 119 110 106 105 128 153 171 177 167 179 167 171 178 170 173 173 174 172 161 160 159 156 155 161 167 153 152 166 160 164 177 187 203 211 204 182 157 143 142 149 146 132 146 147 149 145 156
355 144 196 173 156 198 108 17 0 165 154 249 213 80 96 65 54 74 11 64 321 32 275 155 180 205 281 221 224 212 217 251 244 230 235 239 193 134 121 115 110 98 90 78 109 114 78 91 147 150 147 154 171 167 158 154 150 151 146 153 153 144 143 154 147 152 171 174 165 183 195 203 200 192 170 161 158 154 159 160 159 150 154 161 158 153
124 199 171 73 189 106 118 50 51 47 82 140 175 91 54 59 71 333 71 69 26 250 265 165 193 156 290 269 186 150 207 214 235 246 306 82 83 86 121 144 155 150 149 150 125 102 90 66 92 110 138 153 146 150 145 146 151 150 150 157 163 159 154 159 155 155 171 178 187 196 201 205 200 186 163 157 157 151 165 171 167 169 168 166 165 153
142 56 327 124 38 117 103 72 18 10 110 131 123 126 111 8 25 25 343 47 127 260 317 161 173 188 199 297 12 104 206 201 96 342 148 140 127 150 172 174 155 155 153 150 137 140 119 103 97 114 136 148 155 149 150 155 156 159 160 162 166 166 157 155 154 161 170 176 192 198 205 208 202 175 173 171 171 173 176 175 171 166 159 171 160 166
208 211 135 60 306 132 133 88 5 22 352 54 127 111 114 237 66 307 82 259 200 238 265 335 221 285 239 231 22 329 260 290 233 185 40 107 158 183 206 178 164 159 152 156 163 162 163 171 165 170 162 157 163 170 166 169 170 171 171 172 174 180 162 161 160 171 175 181 192 196 204 210 201 179 177 179 179 176 177 176 172 171 181 167 173 183
272 145 159 135 41 254 164 132 160 51 236 183 164 159 123 193 193 239 229 211 253 266 287 327 13 248 272 296 232 245 239 219 215 209 169 164 182 186 191 178 176 187 177 177 171 174 183 183 188 188 176 172 170 172 173 172 173 176 178 179 181 184 168 155 162 171 178 188 191 194 203 210 204 192 184 188 176 177 182 178 181 184 185 184 192 184
232 304 236 123 254 170 206 197 176 165 176 200 192 160 174 162 173 217 175 210 219 221 255 293 85 237 102 246 308 70 28 333 316 312 221 276 2 80 162 183 195 192 199 181 175 180 183 185 180 188 189 181 174 173 175 174 178 176 180 179 180 181 181 161 166 170 181 188 193 192 197 207 198 189 187 192 176 172 177 180 183 188 187 195 196 195
210 231 195 183 151 159 185 205 157 120 145 217 205 221 246 222 133 214 181 133 277 12 319 226 211 229 198 284 274 270 306 310 322 323 308 294 266 150 182 213 214 211 197 188 182 188 195 186 179 181 185 183 179 177 176 176 178 182 187 184 185 184 184 175 169 175 178 185 189 194 192 200 190 182 178 184 176 170 181 181 185 190 192 199 192 184
132 233 98 70 135 174 195 168 202 144 188 212 131 215 203 65 143 21 3 43 97 16 254 180 296 272 308 275 249 248 248 249 251 255 242 256 274 231 238 257 249 224 202 191 182 197 196 180 182 182 180 178 179 181 184 183 183 186 184 185 187 189 187 186 178 174 173 178 184 196 198 194 194 187 187 187 187 179 180 184 188 190 195 185 179 174
150 201 325 93 198 254 3 257 318 20 113 105 193 219 75 49 93 147 214 58 184 221 260 153 243 278 40 284 41 190 225 241 229 231 233 239 244 254 254 258 259 252 199 180 194 210 189 184 181 181 183 179 181 184 183 188 183 188 188 189 189 190 193 192 180 175 175 180 186 190 197 199 195 194 192 187 185 175 175 182 178 181 184 193 184 169
149 260 228 350 360 2 340 42 295 62 35 123 179 326 137 255 263 240 105 239 244 231 272 246 237 255 225 253 271 321 183 230 222 226 231 242 245 240 251 257 263 233 148 182 205 200 187 185 184 178 181 183 182 185 184 183 182 184 193 195 197 202 201 194 183 177 177 179 185 188 192 194 191 189 190 186 180 174 181 179 177 180 179 162 157 159
119 199 272 340 12 193 61 155 196 212 346 10 14 344 236 111 187 161 193 212 136 243 235 269 263 257 228 241 248 237 226 211 221 219 222 221 226 223 235 246 231 178 191 198 206 201 194 186 178 176 178 181 184 184 183 182 181 189 190 191 202 209 209 208 198 181 178 178 178 181 181 190 186 183 183 183 179 181 187 183 180 175 165 167 159 161
271 144 237 289 307 101 196 203 215 168 155 217 51 256 256 155 298 108 305 185 181 205 218 258 275 256 252 204 231 235 233 230 217 216 212 209 215 217 231 222 186 192 198 209 208 197 186 178 173 174 179 181 180 180 179 183 187 186 184 192 194 201 207 213 214 195 187 172 176 175 183 185 181 184 180 181 182 183 186 183 181 180 172 141 155 148
206 151 200 111 333 228 228 201 200 187 186 185 185 203 194 170 179 209 258 182 201 206 224 227 257 281 261 151 261 263 261 15 108 130 139 184 205 123 112 127 179 198 221 207 207 174 167 167 176 170 160 164 171 187 189 191 180 186 192 193 193 198 208 211 213 204 197 186 173 175 180 181 179 178 178 182 178 182 182 177 175 170 151 170 165 160
173 156 168 184 206 208 213 209 203 83 207 222 197 215 201 200 185 171 220 240 79 261 341 215 289 260 259 64 268 277 258 121 98 81 2 271 245 172 175 162 151 174 200 208 184 162 163 175 184 172 168 176 185 191 193 195 195 195 195 192 197 198 212 210 211 199 200 199 186 181 177 175 180 176 180 181 179 181 178 173 168 164 166 168 165 169
95 169 166 250 118 30 40 182 98 197 121 318 260 251 155 210 200 201 189 186 173 188 209 243 240 262 289 109 155 121 140 158 108 78 259 253 216 191 220 199 176 220 252 116 102 123 151 163 167 156 172 183 195 197 199 198 197 197 199 202 199 207 208 210 205 191 191 196 196 185 177 177 176 179 183 186 182 181 176 170 168 167 170 167 161 169
163 233 182 167 239 145 330 359 331 2 18 216 205 202 219 246 201 201 216 10 246 198 205 182 240 248 275 320 38 108 172 155 246 249 178 236 261 228 215 236 202 183 203 203 195 192 172 169 176 181 184 194 204 214 208 202 203 200 204 200 206 210 205 207 201 190 190 186 189 190 185 181 176 183 187 188 180 180 172 171 167 169 171 166 170 173
202 186 170 193 207 214 221 204 205 206 215 232 208 211 203 207 199 128 214 172 230 225 221 217 249 259 258 72 47 142 194 258 259 211 217 209 232 287 250 226 219 200 207 216 216 203 206 201 196 199 201 199 202 204 206 208 206 205 203 206 200 202 203 207 198 193 186 187 186 192 191 187 183 188 188 184 181 179 174 171 171 171 175 174 174 175
150 297 210 203 208 224 225 150 205 145 125 182 222 206 214 207 206 203 150 189 219 225 232 232 238 257 264 250 254 257 239 203 191 223 228 261 273 263 270 268 250 221 213 208 216 227 212 193 208 211 206 205 204 203 206 206 208 205 201 204 202 201 201 203 196 195 191 191 193 195 198 192 193 186 185 184 181 176 175 175 173 172 176 173 174 177
61 276 254 254 246 250 254 221 102 148 172 206 208 218 213 210 203 206 203 224 218 223 249 234 236 248 261 261 245 258 261 266 266 236 237 252 236 229 232 230 225 245 262 260 244 220 218 219 214 210 213 211 212 209 213 212 205 199 198 205 200 200 201 200 194 197 195 191 199 205 202 197 191 186 183 179 175 177 178 175 175 176 172 170 177 180
135 221 264 288 278 280 289 291 307 265 177 197 211 213 208 212 214 210 222 233 226 218 238 245 238 239 253 262 259 232 258 259 261 265 260 254 267 272 263 249 262 269 265 250 242 242 239 233 224 220 215 214 210 214 217 208 205 204 209 205 197 196 207 193 190 198 195 196 205 211 201 192 190 184 176 173 174 175 178 176 172 172 173 177 179 179
88 251 268 50 300 287 280 281 314 287 283 285 268 244 218 210 217 217 227 230 232 240 248 256 256 251 255 266 270 270 269 274 284 284 289 294 283 279 278 264 255 253 247 241 240 236 235 232 229 227 219 216 212 218 213 209 209 208 206 208 201 197 204 182 197 196 198 204 211 205 195 188 185 182 174 177 178 178 175 173 173 173 175 178 179 178
135 270 100 93 256 268 272 279 288 279 282 277 273 268 263 249 229 224 229 236 244 252 251 253 261 268 261 261 296 281 275 288 292 286 282 283 289 278 269 258 250 248 250 251 246 242 240 241 240 240 230 219 213 215 213 213 213 208 209 213 205 205 199 186 198 201 201 212 208 198 191 186 185 176 183 182 177 176 173 174 171 174 177 180 180 180
141 249 60 128 194 263 265 261 253 251 258 261 265 264 250 241 244 236 230 225 227 233 238 248 257 258 265 269 262 273 277 280 277 272 274 280 281 279 263 253 255 259 262 259 255 252 248 243 237 233 229 221 217 213 210 213 214 201 208 208 206 204 181 191 202 203 209 211 197 195 193 188 177 181 183 175 181 174 173 168 170 176 177 176 179 181
181 153 162 171 218 239 270 156 228 224 241 253 240 238 238 242 247 252 249 235 231 229 237 233 242 252 266 273 270 274 272 266 272 279 283 279 274 263 260 260 258 259 260 262 262 258 254 250 244 237 231 224 216 212 213 209 201 205 212 206 206 175 185 200 201 204 210 205 196 196 191 182 181 182 181 182 173 170 167 171 174 176 176 180 176 167
158 165 174 166 216 196 126 175 152 155 227 234 224 212 214 225 227 234 241 241 243 223 233 237 259 269 272 271 259 258 268 267 268 273 266 263 269 268 264 259 255 257 266 269 262 255 254 251 246 237 227 222 218 214 216 198 200 210 207 198 179 185 197 196 203 203 209 201 198 193 185 183 182 183 182 172 169 166 170 175 181 176 175 172 173 178
169 182 191 183 171 224 147 132 235 228 240 240 167 184 207 217 222 224 234 238 244 248 252 254 256 255 255 258 264 264 265 272 270 272 277 268 260 257 258 264 271 275 271 269 268 264 261 261 264 264 255 231 224 219 187 194 204 207 189 184 189 193 194 200 200 203 204 201 197 185 184 183 183 181 175 171 168 170 175 177 173 171 174 174 177 177
177 181 171 210 161 248 197 191 242 222 223 353 267 240 230 218 223 235 259 250 242 237 234 240 246 251 256 260 261 261 262 268 279 271 266 276 234 244 260 263 266 265 268 266 266 270 268 265 261 256 253 254 222 195 189 206 195 184 201 181 189 193 200 197 201 207 200 201 192 191 187 181 181 177 170 170 171 174 176 174 175 174 172 170 174 177
169 167 179 223 171 220 200 226 242 308 303 277 278 251 167 178 175 183 229 241 229 230 231 234 241 248 251 255 258 265 270 295 286 273 267 285 266 242 242 254 254 258 259 267 266 269 286 305 296 293 275 242 207 190 209 190 164 179 172 180 197 190 197 195 206 209 203 199 194 193 185 180 174 173 172 171 172 178 177 174 175 175 166 168 173 176
182 188 174 207 214 190 223 248 245 230 239 252 233 252 184 187 194 189 197 255 241 215 219 225 235 244 247 254 269 272 287 305 282 275 310 136 232 255 271 264 265 264 268 277 299 306 322 343 34 26 73 99 185 217 184 161 164 165 180 194 192 190 202 202 215 209 201 202 197 189 180 177 171 171 173 174 180 180 178 173 169 172 170 172 174 181
206 205 184 197 219 189 210 221 228 239 239 234 261 214 224 194 203 181 189 246 246 231 213 224 234 242 251 256 260 271 293 266 267 275 307 332 299 304 309 280 277 285 292 290 273 296 307 322 356 43 90 125 226 236 160 156 155 168 197 199 199 198 204 214 216 202 203 202 185 177 174 170 169 172 175 180 181 173 168 171 169 166 169 175 173 177
196 202 192 217 211 222 230 231 232 211 250 235 255 279 236 201 166 101 233 237 244 291 205 237 245 250 259 253 249 242 208 252 264 278 13 45 353 316 340 330 322 322 319 320 340 342 299 318 323 305 283 249 243 201 168 163 168 190 202 208 193 201 215 217 210 197 181 161 163 164 164 169 172 173 172 174 165 163 165 156 151 160 164 163 161 157
192 204 200 212 214 221 223 243 254 265 259 264 249 193 238 103 130 188 225 283 317 17 348 352 329 322 316 306 286 262 234 239 302 315 335 359 6 338 320 302 280 281 298 320 323 345 335 321 264 257 267 261 255 150 150 145 180 216 220 203 196 219 221 204 173 169 168 162 161 165 167 165 164 164 167 163 162 158 151 154 153 149 156 155 152 146
201 200 213 211 220 224 228 230 238 258 230 224 272 163 184 122 222 221 207 67 65 39 62 72 52 9 8 353 346 295 296 308 309 326 337 344 351 311 299 309 318 316 297 282 309 333 319 312 303 290 288 290 137 152 157 163 198 224 218 209 227 237 178 160 163 159 159 158 158 155 155 157 154 153 152 146 138 138 140 140 140 150 151 148 149 152
187 197 203 211 207 228 222 239 238 246 224 252 164 342 126 180 252 351 306 13 64 44 61 68 101 91 62 335 318 308 310 318 324 318 317 322 332 336 325 310 304 294 297 310 312 287 263 290 283 274 258 248 162 164 171 172 210 225 218 221 238 187 157 152 149 145 142 139 144 151 152 151 146 143 140 142 145 143 147 145 143 147 147 147 149 152
182 197 201 222 189 229 212 220 214 169 145 271 153 195 340 73 159 172 47 353 11 33 26 26 94 147 122 323 302 312 311 313 313 320 324 322 320 316 315 289 283 293 290 277 257 279 245 262 279 284 274 234 201 182 183 177 215 218 215 230 202 141 127 128 128 130 131 138 141 139 141 143 140 137 142 144 144 144 144 148 148 150 157 155 155 157
191 194 187 222 177 202 211 233 235 204 206 254 96 125 125 143 137 121 110 37 344 345 341 354 319 207 228 250 274 284 302 301 299 300 304 298 305 304 306 307 281 275 281 287 289 270 239 251 271 280 276 251 216 217 200 196 200 214 212 216 153 141 136 131 129 128 128 128 131 133 133 132 138 142 145 148 147 146 148 147 149 151 157 152 156 157
328 152 352 205 259 208 240 188 191 100 67 32 35 103 85 20 155 113 74 29 303 271 283 305 296 298 286 220 241 277 260 282 300 303 305 302 299 298 298 302 296 276 278 291 294 292 271 266 268 269 267 265 226 222 211 208 194 208 217 164 148 145 137 137 134 136 138 137 139 143 142 138 138 142 145 147 151 152 156 156 159 156 157 158 162 163
296 339 60 180 292 246 263 211 194 224 158 164 239 205 169 192 183 155 155 184 259 279 299 282 278 296 288 246 228 252 275 275 284 288 290 290 295 299 304 301 301 285 269 276 273 291 294 276 273 265 256 261 235 211 215 204 213 207 173 157 152 141 141 142 143 141 143 144 143 145 148 144 146 141 140 141 137 138 144 150 151 151 156 162 162 166
280 111 67 279 213 206 246 312 266 244 242 259 265 287 299 168 210 200 198 209 220 258 257 274 288 297 293 295 263 248 266 272 270 283 292 290 288 294 295 295 293 301 278 239 261 256 266 265 257 260 253 251 233 200 199 198 203 187 163 158 154 149 147 152 155 153 154 151 150 153 153 149 145 144 146 147 145 142 142 150 155 160 168 170 173 170
170 72 204 191 178 278 310 310 304 329 1 321 299 167 189 181 243 295 278 239 223 293 300 294 282 281 301 291 291 276 280 279 262 256 273 287 294 296 293 285 283 283 295 295 260 226 233 247 254 255 252 250 222 195 192 200 192 179 168 166 162 160 158 159 155 150 150 151 149 154 153 148 152 150 148 146 143 153 163 164 167 171 178 192 179 179
124 215 217 291 313 261 218 260 221 26 301 298 325 285 308 305 267 249 317 359 338 326 307 311 309 305 287 282 278 267 268 280 287 270 272 282 283 286 292 296 295 290 283 274 258 237 238 241 247 260 257 254 220 199 195 195 191 183 175 168 167 164 163 159 153 152 158 157 154 154 149 149 152 151 151 150 149 145 141 160 162 162 167 177 181 183
181 197 184 175 187 221 226 213 330 339 255 248 263 295 339 5 38 22 332 312 299 286 283 301 310 312 316 309 287 261 269 281 292 301 291 287 288 274 265 272 282 287 286 288 281 259 237 245 243 247 252 246 220 210 196 191 189 182 179 173 172 169 165 158 157 159 160 160 164 162 155 154 153 156 152 154 150 149 148 144 156 170 172 158 172 173